KAL198 RJFF-RKSI

Flight info

Callsign KAL198
Flight time N/A
Altitude 34000
Route DGC G339 BEETL Y208 INVOK Z91 PSN Y782 BITUX Z53 BASEM Y685 GUKDO GUKDO2E
Aircraft A359/H-SDE2E3GHIJ3J4J5LM1ORWXY/LB1D1

Departure

Time 2026-04-30 11:14
Airport Fukuoka Airport (RJFF)

Arrival

Time N/A
Airport Incheon International Airport (RKSI)
Time Latitude Longitude Altitude Speed Heading
2026-04-30 10:52 33.58693 130.44435 38 ft 0 kts 241°
2026-04-30 11:04 33.58694 130.44438 38 ft 1 kts 241°
2026-04-30 11:04 33.58702 130.44456 37 ft 3 kts 241°
2026-04-30 11:04 33.58712 130.44477 36 ft 3 kts 241°
2026-04-30 11:05 33.58721 130.44497 37 ft 3 kts 227°
2026-04-30 11:05 33.58731 130.44508 37 ft 3 kts 201°
2026-04-30 11:08 33.58722 130.44515 35 ft 2 kts 145°
2026-04-30 11:08 33.58690 130.44607 39 ft 12 kts 124°
2026-04-30 11:08 33.58643 130.44647 39 ft 13 kts 148°
2026-04-30 11:08 33.58560 130.44705 40 ft 15 kts 150°
2026-04-30 11:09 33.58466 130.44766 41 ft 16 kts 151°
2026-04-30 11:09 33.58364 130.44833 42 ft 18 kts 151°
2026-04-30 11:09 33.58251 130.44908 42 ft 19 kts 151°
2026-04-30 11:09 33.58135 130.44987 42 ft 18 kts 149°
2026-04-30 11:10 33.58049 130.45046 43 ft 13 kts 151°
2026-04-30 11:10 33.57967 130.45100 44 ft 15 kts 151°
2026-04-30 11:10 33.57874 130.45162 45 ft 16 kts 148°
2026-04-30 11:10 33.57775 130.45230 46 ft 17 kts 150°
2026-04-30 11:11 33.57668 130.45304 47 ft 18 kts 150°
2026-04-30 11:11 33.57552 130.45382 48 ft 20 kts 150°
2026-04-30 11:11 33.57442 130.45455 48 ft 18 kts 150°
2026-04-30 11:11 33.57327 130.45533 48 ft 18 kts 150°
2026-04-30 11:12 33.57287 130.45572 48 ft 0 kts 96°
2026-04-30 11:12 33.57302 130.45581 48 ft 7 kts 15°
2026-04-30 11:12 33.57382 130.45608 48 ft 11 kts 15°
2026-04-30 11:12 33.57438 130.45664 48 ft 11 kts 59°
2026-04-30 11:13 33.57479 130.45751 49 ft 13 kts 60°
2026-04-30 11:13 33.57513 130.45798 49 ft 3 kts 15°
2026-04-30 11:13 33.57546 130.45781 49 ft 6 kts 328°
2026-04-30 11:13 33.57626 130.45723 48 ft 36 kts 330°
2026-04-30 11:14 33.58060 130.45431 45 ft 105 kts 330°
2026-04-30 11:14 33.58880 130.44871 49 ft 162 kts 330°
2026-04-30 11:14 33.59811 130.44212 766 ft 151 kts 331°
2026-04-30 11:14 33.60742 130.43582 1241 ft 161 kts 332°
2026-04-30 11:15 33.61813 130.42869 1531 ft 191 kts 332°
2026-04-30 11:15 33.63078 130.42026 1767 ft 225 kts 332°
2026-04-30 11:15 33.64527 130.41055 2195 ft 248 kts 331°
2026-04-30 11:15 33.66065 130.40021 2952 ft 256 kts 330°
2026-04-30 11:16 33.67616 130.38938 3768 ft 260 kts 327°
2026-04-30 11:16 33.69101 130.37716 4565 ft 264 kts 322°
2026-04-30 11:16 33.70568 130.36365 5386 ft 266 kts 320°
2026-04-30 11:16 33.72014 130.34961 6256 ft 268 kts 318°
2026-04-30 11:17 33.73464 130.33532 7109 ft 270 kts 317°
2026-04-30 11:17 33.74929 130.32092 7987 ft 273 kts 317°
2026-04-30 11:17 33.76418 130.30644 8870 ft 276 kts 317°
2026-04-30 11:17 33.77927 130.29192 9775 ft 279 kts 317°
2026-04-30 11:18 33.79452 130.27733 10448 ft 290 kts 317°
2026-04-30 11:18 33.82846 130.24477 11168 ft 330 kts 317°
2026-04-30 11:18 33.84673 130.22736 11832 ft 338 kts 317°
2026-04-30 11:19 33.86527 130.20979 12593 ft 342 kts 316°
2026-04-30 11:19 33.88413 130.19192 13381 ft 346 kts 316°
2026-04-30 11:19 33.90287 130.17415 14094 ft 349 kts 316°
2026-04-30 11:19 33.92203 130.15591 14762 ft 353 kts 316°
2026-04-30 11:20 33.94141 130.13742 15427 ft 357 kts 315°
2026-04-30 11:20 33.96101 130.11869 16092 ft 361 kts 315°
2026-04-30 11:20 33.98074 130.09983 16781 ft 364 kts 315°
2026-04-30 11:20 34.00048 130.08095 17467 ft 367 kts 315°
2026-04-30 11:21 34.02059 130.06169 18139 ft 371 kts 314°
2026-04-30 11:21 34.04091 130.04222 18718 ft 375 kts 314°
2026-04-30 11:21 34.06149 130.02250 19300 ft 378 kts 314°
2026-04-30 11:21 34.08217 130.00268 19897 ft 381 kts 314°
2026-04-30 11:22 34.10299 129.98270 20476 ft 384 kts 314°
2026-04-30 11:22 34.12374 129.96278 21066 ft 387 kts 313°
2026-04-30 11:22 34.14499 129.94236 21679 ft 390 kts 313°
2026-04-30 11:22 34.16631 129.92186 22282 ft 393 kts 313°
2026-04-30 11:23 34.18759 129.90138 22863 ft 397 kts 313°
2026-04-30 11:23 34.20932 129.88046 23476 ft 400 kts 313°
2026-04-30 11:23 34.25322 129.83815 24463 ft 406 kts 313°
2026-04-30 11:24 34.27550 129.81669 24955 ft 410 kts 313°
2026-04-30 11:24 34.29771 129.79542 25464 ft 413 kts 313°
2026-04-30 11:24 34.32041 129.77374 25950 ft 416 kts 313°
2026-04-30 11:25 34.36615 129.73009 26923 ft 423 kts 312°
2026-04-30 11:25 34.38938 129.70787 27402 ft 426 kts 312°
2026-04-30 11:25 34.43632 129.66289 28333 ft 433 kts 312°
2026-04-30 11:26 34.48393 129.61717 29242 ft 440 kts 311°
2026-04-30 11:26 34.50800 129.59403 29695 ft 443 kts 311°
2026-04-30 11:26 34.53193 129.57101 30107 ft 446 kts 311°
2026-04-30 11:27 34.55638 129.54748 30469 ft 449 kts 311°
2026-04-30 11:27 34.58103 129.52373 30840 ft 452 kts 311°
2026-04-30 11:27 34.60576 129.49990 31224 ft 454 kts 311°
2026-04-30 11:27 34.63057 129.47598 31595 ft 457 kts 311°
2026-04-30 11:28 34.68049 129.42776 32288 ft 462 kts 311°
2026-04-30 11:28 34.69599 129.41276 32507 ft 463 kts 311°
2026-04-30 11:28 34.72046 129.38909 32843 ft 466 kts 311°
2026-04-30 11:29 34.74590 129.36446 33143 ft 468 kts 311°
2026-04-30 11:29 34.77149 129.33967 33456 ft 470 kts 311°
2026-04-30 11:29 34.82298 129.28987 33954 ft 470 kts 310°
2026-04-30 11:30 34.87255 129.24252 33969 ft 440 kts 310°
2026-04-30 11:30 34.88864 129.22715 33969 ft 431 kts 310°
2026-04-30 11:31 34.92635 129.19067 33957 ft 432 kts 309°
2026-04-30 11:31 34.97424 129.14353 33945 ft 451 kts 310°